#timestamp,LO_Frequency,Hit,StdDev 
1607982455.5,286046990.2,P
1607982475.3,286046988.7,P
1607982495.2,286046991.5,P
1607982515.9,286046988.5,Y
1607982535.7,286046998.8,P
1607982555.6,286046998.3,N
1607982575.4,286046999.0,N
1607982595.2,286046994.9,N
1607982615.1,286046995.5,N
1607982616.0,286046995.5,N
1607982635.8,286046995.9,N
1607982655.7,286046995.4,N
1607982675.5,286046996.9,N
1607982695.3,286046995.5,N
1607982715.2,286046997.2,N
1607982735.0,286046997.3,N
1607982735.9,286046997.3,N
1607982755.7,286046995.9,N
1607982775.6,286046993.8,Y
1607982795.4,286046996.9,P
1607982815.3,286046997.2,P
1607982835.1,286046997.8,P
1607982836.0,286046997.8,Y
1607982855.8,286047000.5,P
1607982875.7,286046998.3,N
1607982895.5,286047000.7,N
1607982915.4,286046999.0,N
1607982935.2,286046998.9,N
1607982955.0,286046998.1,N
1607982955.9,286046998.1,N
1607982975.8,286046998.8,N
1607982995.6,286046998.3,N
1607983015.4,286046998.6,N
1607983035.3,286046997.7,N
1607983055.1,286046994.9,Y
1607983075.8,286046998.4,P
1607983095.7,286046999.8,N
1607983115.5,286047000.2,N
1607983135.4,286046998.1,N
1607983155.2,286046998.8,N
1607983175.0,286046998.4,N
1607983175.9,286046998.4,N
1607983195.8,286047001.1,N
